Zurück zum Katalog

SL-14 DEB

AktivPO
NORAD 26026·DEBRIS·🇷🇺 Russia

Gestartet Sep 28, 1991 von Plesetsk Cosmodrome

Loading…

Nächste Überflüge (nächste 24 Stunden)

TLE

AktuellSource: Space-Track

Epoche: Sep 14, 2026, 08:57 UTC

1 26026U 91068AM  26257.37298241  .00000074  00000-0  34795-3 0  9990
2 26026  82.5079 236.2281 0093653 303.0108 212.3420 12.63623946248284

Verfolge SL-14 DEB in Echtzeit mit AllMySat

Download on the App Store